Flag for Denmark Weather past 2 weeks in Odense, Denmark

Now
52 °F

Partly sunny.


Feels Like: 47 °F
Forecast: 51 / 57 °F
Wind: 14 mph from South

Location: Odense / Beldringe

Current Time: Oct 24, 2014 at 7:03:39 PM

Latest Report: Oct 24, 2014 at 4:50 PM


Visibility: N/A

Pressure: 30.04 "Hg

Humidity: 88%

Dew point: 48 °F

Location of OdenseLocation

Historic Weather in Odense — Graph

°F

Odense temperature yesterday

Maximum temperature yesterday: 52 °F (at 1:50 PM)
Minimum temperature yesterday: 46 °F (at 7:50 AM)
Average temperature yesterday: 50 °F

Past Weeks' High & Low Weather Summary

 TemperatureHumidityPressure
High59 °F (Oct 10, 2:50 PM)100% (Oct 10, 7:20 AM)30.12 "Hg (Oct 10, 7:20 AM)
Low41 °F (Oct 22, 7:20 AM)68% (Oct 10, 3:50 PM)29.33 "Hg (Oct 21, 5:50 PM)
Average52 °F96%29.83 "Hg
* Reported Oct 9 4:20 PM — Oct 24 4:50 PM, Odense, Weather by CustomWeather, © 2014

Note: Actual official high and low records may vary slightly from our data, if they occured in-between our weather recording intervals... More about our weather records

Advertising

Odense weather history for previous 24 hours

 ConditionsComfort  
Time TempWeatherWind HumidityBarometerVisibility
4:50 PM
Oct 24
52 °FPartly sunny.14 mph88%30.04 "HgN/A
3:50 PM52 °FBroken clouds.16 mph88%30.04 "HgN/A
2:50 PM52 °FBroken clouds.15 mph88%30.04 "HgN/A
1:50 PM52 °FPartly sunny.15 mph88%30.04 "HgN/A
12:50 PM52 °FBroken clouds.17 mph88%30.07 "HgN/A
11:50 AM52 °FBroken clouds.13 mph94%30.07 "HgN/A
11:20 AM50 °FBroken clouds.13 mph100%30.07 "Hg6 mi
10:50 AM50 °FPartly sunny.13 mph100%30.07 "Hg4 mi
10:20 AM50 °FDrizzle. Partly sunny.13 mph100%30.07 "Hg3 mi
9:50 AM50 °FFog.12 mph100%30.07 "Hg3 mi
9:20 AM50 °FFog.12 mph100%30.07 "Hg2 mi
8:50 AM50 °FFog.13 mph100%30.07 "Hg2 mi
8:20 AM50 °FFog.12 mph100%30.07 "Hg3 mi
7:50 AM50 °FFog.10 mph100%30.07 "Hg2 mi
7:20 AM50 °FPartly cloudy.10 mph94%30.07 "Hg2 mi
8:50 PM
Oct 23
50 °FPassing clouds.10 mph100%30.09 "HgN/A
8:20 PM50 °FPassing clouds.9 mph100%30.09 "HgN/A
7:50 PM50 °FPartly cloudy.8 mph100%30.12 "HgN/A
7:20 PM50 °FPartly cloudy.9 mph100%30.09 "HgN/A
Weather by CustomWeather, © 2014

See weather overviewHow to use our weather pages